| time (UTC) | temp F | wind direction | speed MPH | gust MPH | rain 1hr in | rain 24hr in | rain mn in | humidity % | barometer mb |
| 20260906124039 | 64 | 28 | 2.0 | 3.0 | 0.00 | 0.00 | 0.00 | 99 | 1023.1 |
| 20260906123538 | 63 | 330 | 0.0 | 2.0 | 0.00 | 0.00 | 0.00 | 99 | 1023.0 |
| 20260906123033 | 62 | 205 | 0.0 | 0.0 | 0.00 | 0.00 | 0.00 | 99 | 1022.9 |
| 20260906122527 | 61 | 142 | 0.0 | 1.0 | 0.00 | 0.00 | 0.00 | 99 | 1023.2 |
| 20260906122024 | 60 | 169 | 0.0 | 2.0 | 0.00 | 0.00 | 0.00 | 99 | 1023.1 |
| 20260906121519 | 60 | 129 | 0.0 | 1.0 | 0.00 | 0.00 | 0.00 | 99 | 1023.0 |
| 20260906121015 | 59 | 142 | 0.0 | 1.0 | 0.00 | 0.00 | 0.00 | 99 | 1022.9 |
| 20260906120516 | 59 | 44 | 0.0 | 2.0 | 0.00 | 0.00 | 0.00 | 99 | 1022.6 |
| 20260906120013 | 59 | 7 | 2.0 | 3.0 | 0.00 | 0.00 | 0.00 | 99 | 1022.5 |
| 20260906115508 | 59 | 357 | 0.0 | 2.0 | 0.00 | 0.00 | 0.00 | 99 | 1022.5 |
| 20260906115002 | 59 | 116 | 0.0 | 0.0 | 0.00 | 0.00 | 0.00 | 99 | 1022.5 |
| 20260906114456 | 59 | 89 | 0.0 | 1.0 | 0.00 | 0.00 | 0.00 | 99 | 1022.4 |
| 20260906113953 | 59 | 297 | 0.0 | 1.0 | 0.00 | 0.00 | 0.00 | 99 | 1022.4 |
| 20260906113451 | 59 | 37 | 0.0 | 1.0 | 0.00 | 0.00 | 0.00 | 99 | 1022.1 |
| 20260906112947 | 59 | 132 | 1.0 | 2.0 | 0.00 | 0.00 | 0.00 | 99 | 1022.1 |
| 20260906112442 | 57 | 46 | 0.0 | 1.0 | 0.00 | 0.00 | 0.00 | 99 | 1022.1 |
| 20260906111937 | 58 | 113 | 0.0 | 1.0 | 0.00 | 0.00 | 0.00 | 99 | 1022.1 |
| 20260906111431 | 58 | 55 | 0.0 | 1.0 | 0.00 | 0.00 | 0.00 | 99 | 1022.1 |
| 20260906110926 | 57 | 147 | 0.0 | 2.0 | 0.00 | 0.00 | 0.00 | 99 | 1022.0 |
| 20260906110422 | 57 | 5 | 0.0 | 1.0 | 0.00 | 0.00 | 0.00 | 99 | 1022.1 |
| 20260906105921 | 58 | 72 | 0.0 | 0.0 | 0.00 | 0.00 | 0.00 | 99 | 1022.0 |
| 20260906105417 | 58 | 25 | 0.0 | 1.0 | 0.00 | 0.00 | 0.00 | 99 | 1021.8 |
| 20260906104912 | 58 | 164 | 0.0 | 1.0 | 0.00 | 0.00 | 0.00 | 99 | 1021.9 |
| 20260906104411 | 57 | 115 | 0.0 | 1.0 | 0.00 | 0.00 | 0.00 | 99 | 1022.1 |
| 20260906103910 | 58 | 22 | 0.0 | 1.0 | 0.00 | 0.00 | 0.00 | 99 | 1022.0 |
| 20260906103408 | 58 | 12 | 2.0 | 2.0 | 0.00 | 0.00 | 0.00 | 99 | 1022.2 |
| 20260906102904 | 58 | 117 | 0.0 | 1.0 | 0.00 | 0.00 | 0.00 | 99 | 1021.9 |
| 20260906102403 | 57 | 142 | 0.0 | 1.0 | 0.00 | 0.00 | 0.00 | 99 | 1021.9 |
| 20260906101858 | 57 | 104 | 0.0 | 0.0 | 0.00 | 0.00 | 0.00 | 99 | 1022.0 |
| 20260906101353 | 58 | 104 | 0.0 | 1.0 | 0.00 | 0.00 | 0.00 | 99 | 1022.0 |
| 20260906100849 | 58 | 135 | 0.0 | 1.0 | 0.00 | 0.00 | 0.00 | 99 | 1021.9 |
| 20260906100348 | 58 | 297 | 0.0 | 1.0 | 0.00 | 0.00 | 0.00 | 99 | 1021.8 |
| 20260906095843 | 58 | 35 | 0.0 | 1.0 | 0.00 | 0.00 | 0.00 | 99 | 1021.8 |
| 20260906095339 | 58 | 60 | 0.0 | 1.0 | 0.00 | 0.00 | 0.00 | 99 | 1021.7 |
| 20260906094837 | 58 | 22 | 0.0 | 1.0 | 0.00 | 0.00 | 0.00 | 99 | 1021.7 |
| 20260906094333 | 58 | 137 | 1.0 | 1.0 | 0.00 | 0.00 | 0.00 | 99 | 1021.7 |
| 20260906093829 | 58 | 144 | 0.0 | 1.0 | 0.00 | 0.00 | 0.00 | 99 | 1021.7 |
| 20260906093325 | 58 | 104 | 0.0 | 0.0 | 0.00 | 0.00 | 0.00 | 99 | 1021.6 |
| 20260906092819 | 58 | 315 | 0.0 | 0.0 | 0.00 | 0.00 | 0.00 | 99 | 1021.7 |
| 20260906092314 | 59 | 154 | 0.0 | 2.0 | 0.00 | 0.00 | 0.00 | 99 | 1021.7 |
| 20260906091810 | 58 | 130 | 0.0 | 1.0 | 0.00 | 0.00 | 0.00 | 99 | 1021.7 |
| 20260906091306 | 58 | 50 | 0.0 | 1.0 | 0.00 | 0.00 | 0.00 | 99 | 1021.5 |
| 20260906090802 | 59 | 329 | 0.0 | 2.0 | 0.00 | 0.00 | 0.00 | 99 | 1021.6 |
| 20260906090300 | 59 | 55 | 0.0 | 1.0 | 0.00 | 0.00 | 0.00 | 99 | 1021.6 |
| 20260906085800 | 59 | 112 | 0.0 | 2.0 | 0.00 | 0.00 | 0.00 | 99 | 1021.4 |
| 20260906085253 | 59 | 129 | 0.0 | 1.0 | 0.00 | 0.00 | 0.00 | 99 | 1021.5 |
| 20260906084748 | 59 | 354 | 0.0 | 2.0 | 0.00 | 0.00 | 0.00 | 99 | 1021.7 |
| 20260906084242 | 59 | 44 | 0.0 | 2.0 | 0.00 | 0.00 | 0.00 | 99 | 1021.7 |
| 20260906083738 | 59 | 6 | 1.0 | 1.0 | 0.00 | 0.00 | 0.00 | 99 | 1021.6 |
| 20260906083233 | 59 | 142 | 0.0 | 0.0 | 0.00 | 0.00 | 0.00 | 99 | 1021.5 |
| 20260906082728 | 59 | 117 | 0.0 | 1.0 | 0.00 | 0.00 | 0.00 | 99 | 1021.6 |
| 20260906082223 | 59 | 113 | 0.0 | 1.0 | 0.00 | 0.00 | 0.00 | 99 | 1021.5 |
| 20260906081719 | 59 | 353 | 0.0 | 3.0 | 0.00 | 0.00 | 0.00 | 99 | 1021.5 |
| 20260906081219 | 60 | 18 | 1.0 | 3.0 | 0.00 | 0.00 | 0.00 | 99 | 1021.6 |
| 20260906080715 | 59 | 50 | 0.0 | 1.0 | 0.00 | 0.00 | 0.00 | 99 | 1021.7 |
| 20260906080211 | 59 | 50 | 0.0 | 1.0 | 0.00 | 0.00 | 0.00 | 99 | 1021.7 |
| 20260906075706 | 60 | 157 | 0.0 | 0.0 | 0.00 | 0.00 | 0.00 | 99 | 1021.8 |
| 20260906075201 | 60 | 157 | 0.0 | 1.0 | 0.00 | 0.00 | 0.00 | 99 | 1021.7 |
| 20260906074656 | 60 | 103 | 0.0 | 1.0 | 0.00 | 0.00 | 0.00 | 99 | 1021.7 |
| 20260906074154 | 60 | 154 | 0.0 | 0.0 | 0.00 | 0.00 | 0.00 | 99 | 1021.7 |
| 20260906073649 | 60 | 154 | 0.0 | 1.0 | 0.00 | 0.00 | 0.00 | 99 | 1021.5 |
| 20260906073139 | 60 | 50 | 0.0 | 0.0 | 0.00 | 0.00 | 0.00 | 99 | 1021.6 |
| 20260906072635 | 60 | 50 | 0.0 | 2.0 | 0.00 | 0.00 | 0.00 | 99 | 1021.6 |
| 20260906072130 | 61 | 7 | 1.0 | 2.0 | 0.00 | 0.00 | 0.00 | 99 | 1021.6 |
| 20260906071626 | 60 | 42 | 0.0 | 2.0 | 0.00 | 0.00 | 0.00 | 99 | 1021.6 |
| 20260906071121 | 60 | 38 | 0.0 | 1.0 | 0.00 | 0.00 | 0.00 | 99 | 1021.8 |
| 20260906070618 | 60 | 37 | 0.0 | 1.0 | 0.00 | 0.00 | 0.00 | 99 | 1021.9 |
| 20260906070113 | 61 | 104 | 0.0 | 0.0 | 0.00 | 0.00 | 0.00 | 99 | 1022.0 |
| 20260906065612 | 61 | 345 | 0.0 | 0.0 | 0.00 | 0.00 | 0.00 | 99 | 1021.8 |
| 20260906065108 | 62 | 345 | 0.0 | 1.0 | 0.00 | 0.00 | 0.00 | 99 | 1021.8 |
| 20260906064604 | 61 | 53 | 0.0 | 1.0 | 0.00 | 0.00 | 0.00 | 99 | 1022.0 |
| 20260906064058 | 62 | 32 | 0.0 | 1.0 | 0.00 | 0.00 | 0.00 | 99 | 1021.7 |
| 20260906063553 | 62 | 19 | 0.0 | 2.0 | 0.00 | 0.00 | 0.00 | 99 | 1021.8 |
| 20260906063049 | 63 | 44 | 0.0 | 1.0 | 0.00 | 0.00 | 0.00 | 99 | 1021.9 |
| 20260906062544 | 63 | 117 | 0.0 | 1.0 | 0.00 | 0.00 | 0.00 | 99 | 1022.0 |
| 20260906062038 | 63 | 104 | 0.0 | 1.0 | 0.00 | 0.00 | 0.00 | 99 | 1022.0 |
| 20260906061535 | 63 | 129 | 0.0 | 1.0 | 0.00 | 0.00 | 0.00 | 99 | 1022.1 |
| 20260906061034 | 64 | 135 | 0.0 | 2.0 | 0.00 | 0.00 | 0.00 | 99 | 1022.0 |
| 20260906060531 | 63 | 166 | 1.0 | 2.0 | 0.00 | 0.00 | 0.00 | 99 | 1021.9 |
| 20260906060028 | 63 | 154 | 0.0 | 1.0 | 0.00 | 0.00 | 0.00 | 99 | 1021.9 |
| 20260906055523 | 63 | 154 | 0.0 | 0.0 | 0.00 | 0.00 | 0.00 | 99 | 1021.8 |
| 20260906055018 | 63 | 147 | 0.0 | 1.0 | 0.00 | 0.00 | 0.00 | 99 | 1021.8 |
| 20260906054513 | 63 | 0 | 0.0 | 0.0 | 0.00 | 0.00 | 0.00 | 99 | 1021.8 |
| 20260906054008 | 63 | 0 | 0.0 | 0.0 | 0.00 | 0.00 | 0.00 | 99 | 1021.4 |
| 20260906053504 | 63 | 0 | 0.0 | 1.0 | 0.00 | 0.00 | 0.00 | 99 | 1021.7 |
| 20260906053000 | 63 | 352 | 0.0 | 2.0 | 0.00 | 0.00 | 0.00 | 99 | 1021.5 |
| 20260906052455 | 64 | 50 | 0.0 | 1.0 | 0.00 | 0.00 | 0.00 | 99 | 1021.5 |
| 20260906051952 | 64 | 322 | 0.0 | 2.0 | 0.00 | 0.00 | 0.00 | 99 | 1021.4 |
| 20260906051448 | 64 | 129 | 0.0 | 1.0 | 0.00 | 0.00 | 0.00 | 99 | 1021.6 |
| 20260906050943 | 64 | 89 | 0.0 | 0.0 | 0.00 | 0.00 | 0.00 | 99 | 1021.7 |
| 20260906050442 | 63 | 89 | 0.0 | 0.0 | 0.00 | 0.00 | 0.00 | 99 | 1021.6 |
| 20260906045942 | 63 | 89 | 0.0 | 0.0 | 0.00 | 0.00 | 0.00 | 99 | 1021.6 |
| 20260906045441 | 63 | 89 | 0.0 | 0.0 | 0.00 | 0.00 | 0.00 | 99 | 1021.5 |
| 20260906044937 | 64 | 89 | 0.0 | 0.0 | 0.00 | 0.00 | 0.00 | 99 | 1021.4 |
| 20260906044432 | 64 | 89 | 0.0 | 0.0 | 0.00 | 0.00 | 0.00 | 99 | 1021.2 |
| 20260906043927 | 64 | 89 | 0.0 | 0.0 | 0.00 | 0.00 | 0.00 | 99 | 1021.3 |
| 20260906043423 | 64 | 89 | 0.0 | 0.0 | 0.00 | 0.00 | 0.00 | 99 | 1021.0 |
| 20260906042919 | 65 | 89 | 0.0 | 0.0 | 0.00 | 0.00 | 0.00 | 99 | 1021.2 |
| 20260906042418 | 64 | 89 | 0.0 | 1.0 | 0.00 | 0.00 | 0.00 | 99 | 1021.2 |
| 20260906041913 | 65 | 37 | 0.0 | 2.0 | 0.00 | 0.00 | 0.00 | 99 | 1021.3 |
| 20260906041409 | 65 | 5 | 1.0 | 2.0 | 0.00 | 0.00 | 0.00 | 99 | 1021.2 |
| 20260906040909 | 65 | 129 | 0.0 | 0.0 | 0.00 | 0.00 | 0.00 | 99 | 1021.2 |
| 20260906040404 | 66 | 129 | 0.0 | 1.0 | 0.00 | 0.00 | 0.00 | 99 | 1021.1 |
| 20260906035859 | 66 | 62 | 0.0 | 1.0 | 0.00 | 0.00 | 0.00 | 99 | 1021.0 |
| 20260906035354 | 66 | 62 | 0.0 | 1.0 | 0.00 | 0.00 | 0.00 | 99 | 1021.1 |
| 20260906034849 | 66 | 32 | 0.0 | 1.0 | 0.00 | 0.00 | 0.00 | 99 | 1021.2 |
| 20260906034344 | 67 | 50 | 0.0 | 1.0 | 0.00 | 0.00 | 0.00 | 99 | 1020.9 |
| 20260906033840 | 67 | 119 | 0.0 | 1.0 | 0.00 | 0.00 | 0.00 | 99 | 1021.1 |
| 20260906033339 | 67 | 311 | 1.0 | 2.0 | 0.00 | 0.00 | 0.00 | 99 | 1021.0 |
| 20260906032836 | 67 | 16 | 1.0 | 2.0 | 0.00 | 0.00 | 0.00 | 99 | 1020.8 |
| 20260906032331 | 68 | 32 | 0.0 | 1.0 | 0.00 | 0.00 | 0.00 | 99 | 1021.0 |
| 20260906031826 | 68 | 347 | 3.0 | 4.0 | 0.00 | 0.00 | 0.00 | 99 | 1020.8 |
| 20260906031322 | 68 | 13 | 1.0 | 2.0 | 0.00 | 0.00 | 0.00 | 99 | 1020.8 |
| 20260906030821 | 68 | 13 | 2.0 | 3.0 | 0.00 | 0.00 | 0.00 | 99 | 1020.7 |
| 20260906030317 | 68 | 27 | 1.0 | 3.0 | 0.00 | 0.00 | 0.00 | 99 | 1020.7 |
| 20260906025811 | 68 | 15 | 1.0 | 2.0 | 0.00 | 0.00 | 0.00 | 99 | 1020.4 |
| 20260906025306 | 68 | 25 | 3.0 | 4.0 | 0.00 | 0.00 | 0.00 | 99 | 1020.4 |
| 20260906024804 | 68 | 357 | 1.0 | 4.0 | 0.00 | 0.00 | 0.00 | 98 | 1020.7 |
| 20260906024303 | 68 | 36 | 0.0 | 5.0 | 0.00 | 0.00 | 0.00 | 98 | 1020.4 |
| 20260906023759 | 69 | 22 | 2.0 | 3.0 | 0.00 | 0.00 | 0.00 | 98 | 1020.3 |
| 20260906023254 | 69 | 338 | 0.0 | 4.0 | 0.00 | 0.00 | 0.00 | 98 | 1020.3 |
| 20260906022750 | 69 | 15 | 3.0 | 4.0 | 0.00 | 0.00 | 0.00 | 98 | 1020.2 |
| 20260906022245 | 69 | 17 | 2.0 | 4.0 | 0.00 | 0.00 | 0.00 | 98 | 1020.2 |
| 20260906021741 | 69 | 2 | 2.0 | 3.0 | 0.00 | 0.00 | 0.00 | 98 | 1020.2 |
| 20260906021240 | 69 | 89 | 0.0 | 5.0 | 0.00 | 0.00 | 0.00 | 98 | 1020.1 |
| 20260906020734 | 69 | 15 | 2.0 | 3.0 | 0.00 | 0.00 | 0.00 | 98 | 1019.9 |
| 20260906020229 | 69 | 53 | 1.0 | 7.0 | 0.00 | 0.00 | 0.00 | 98 | 1020.1 |
| 20260906015724 | 69 | 32 | 2.0 | 5.0 | 0.00 | 0.00 | 0.00 | 98 | 1019.9 |
| 20260906015222 | 69 | 323 | 2.0 | 4.0 | 0.00 | 0.00 | 0.00 | 98 | 1020.0 |
| 20260906014717 | 69 | 341 | 3.0 | 5.0 | 0.00 | 0.00 | 0.00 | 98 | 1020.1 |
| 20260906014213 | 69 | 73 | 3.0 | 5.0 | 0.00 | 0.00 | 0.00 | 98 | 1020.1 |
| 20260906013709 | 69 | 21 | 2.0 | 4.0 | 0.00 | 0.00 | 0.00 | 97 | 1020.2 |
| 20260906013209 | 70 | 69 | 2.0 | 3.0 | 0.00 | 0.00 | 0.00 | 97 | 1020.1 |
| 20260906012703 | 70 | 248 | 1.0 | 3.0 | 0.00 | 0.00 | 0.00 | 97 | 1020.1 |
| 20260906012157 | 70 | 0 | 2.0 | 4.0 | 0.00 | 0.00 | 0.00 | 97 | 1020.0 |
| 20260906011653 | 70 | 25 | 0.0 | 4.0 | 0.00 | 0.00 | 0.00 | 96 | 1019.9 |
| 20260906011148 | 70 | 332 | 0.0 | 3.0 | 0.00 | 0.00 | 0.00 | 96 | 1019.9 |
| 20260906010644 | 70 | 19 | 0.0 | 2.0 | 0.00 | 0.00 | 0.00 | 95 | 1020.1 |
| 20260906010140 | 71 | 339 | 2.0 | 3.0 | 0.00 | 0.00 | 0.00 | 95 | 1020.1 |
| 20260906005639 | 71 | 7 | 2.0 | 3.0 | 0.00 | 0.00 | 0.00 | 94 | 1019.9 |
| 20260906005138 | 71 | 42 | 1.0 | 5.0 | 0.00 | 0.00 | 0.00 | 93 | 1019.8 |
| 20260906004638 | 72 | 24 | 2.0 | 4.0 | 0.00 | 0.00 | 0.00 | 93 | 1019.8 |
| 20260906004133 | 72 | 20 | 3.0 | 3.0 | 0.00 | 0.00 | 0.00 | 93 | 1019.8 |
| 20260906003628 | 73 | 112 | 0.0 | 4.0 | 0.00 | 0.00 | 0.00 | 93 | 1019.8 |
| 20260906003124 | 73 | 77 | 1.0 | 7.0 | 0.00 | 0.00 | 0.00 | 92 | 1019.6 |
| 20260906002619 | 73 | 238 | 0.0 | 4.0 | 0.00 | 0.00 | 0.00 | 92 | 1019.5 |
| 20260906002113 | 74 | 338 | 3.0 | 7.0 | 0.00 | 0.00 | 0.00 | 91 | 1019.7 |
| 20260906001608 | 74 | 341 | 2.0 | 4.0 | 0.00 | 0.00 | 0.00 | 91 | 1019.8 |
| 20260906001103 | 74 | 310 | 0.0 | 7.0 | 0.00 | 0.00 | 0.00 | 90 | 1019.7 |
| 20260906000559 | 75 | 26 | 3.0 | 6.0 | 0.00 | 0.00 | 0.00 | 90 | 1019.6 |
| 20260906000054 | 76 | 17 | 3.0 | 5.0 | 0.00 | 0.00 | 0.00 | 89 | 1019.6 |
| 20260905235553 | 76 | 12 | 7.0 | 13.0 | 0.00 | 0.00 | 0.00 | 89 | 1019.6 |
| 20260905235048 | 76 | 3 | 4.0 | 11.0 | 0.00 | 0.00 | 0.00 | 88 | 1019.7 |
| 20260905234544 | 77 | 1 | 7.0 | 9.0 | 0.00 | 0.00 | 0.00 | 88 | 1019.6 |
| 20260905234039 | 77 | 12 | 3.0 | 7.0 | 0.00 | 0.00 | 0.00 | 87 | 1019.7 |
| 20260905233538 | 77 | 0 | 4.0 | 11.0 | 0.00 | 0.00 | 0.00 | 87 | 1019.6 |
| 20260905233038 | 78 | 1 | 4.0 | 10.0 | 0.00 | 0.00 | 0.00 | 86 | 1019.5 |
| 20260905232534 | 79 | 345 | 3.0 | 10.0 | 0.00 | 0.00 | 0.00 | 85 | 1019.3 |
| 20260905232029 | 79 | 356 | 7.0 | 7.0 | 0.00 | 0.00 | 0.00 | 85 | 1019.5 |
| 20260905231524 | 79 | 4 | 6.0 | 7.0 | 0.00 | 0.00 | 0.00 | 83 | 1019.2 |
| 20260905231021 | 80 | 7 | 3.0 | 5.0 | 0.00 | 0.00 | 0.00 | 83 | 1019.2 |
| 20260905230520 | 79 | 8 | 7.0 | 9.0 | 0.00 | 0.00 | 0.00 | 83 | 1019.2 |
| 20260905230018 | 79 | 354 | 5.0 | 9.0 | 0.00 | 0.00 | 0.00 | 84 | 1019.3 |
| 20260905225513 | 80 | 328 | 4.0 | 7.0 | 0.00 | 0.00 | 0.00 | 83 | 1019.1 |
| 20260905225009 | 80 | 1 | 5.0 | 9.0 | 0.00 | 0.00 | 0.00 | 83 | 1018.9 |
| 20260905224504 | 80 | 358 | 6.0 | 9.0 | 0.00 | 0.00 | 0.00 | 82 | 1019.0 |
| 20260905224003 | 80 | 4 | 6.0 | 9.0 | 0.00 | 0.00 | 0.00 | 83 | 1019.1 |
| 20260905223501 | 80 | 3 | 6.0 | 10.0 | 0.00 | 0.00 | 0.00 | 82 | 1019.2 |
| 20260905222955 | 80 | 6 | 8.0 | 10.0 | 0.00 | 0.00 | 0.00 | 81 | 1019.2 |
| 20260905222450 | 80 | 348 | 6.0 | 11.0 | 0.00 | 0.00 | 0.00 | 81 | 1019.0 |
| 20260905221945 | 80 | 4 | 6.0 | 10.0 | 0.00 | 0.00 | 0.00 | 81 | 1019.0 |
| 20260905221442 | 81 | 354 | 2.0 | 6.0 | 0.00 | 0.00 | 0.00 | 81 | 1019.0 |
| 20260905220938 | 80 | 341 | 10.0 | 12.0 | 0.00 | 0.00 | 0.00 | 81 | 1019.0 |
| 20260905220433 | 80 | 3 | 4.0 | 10.0 | 0.00 | 0.00 | 0.00 | 81 | 1019.1 |
| 20260905215932 | 80 | 5 | 6.0 | 8.0 | 0.00 | 0.00 | 0.00 | 83 | 1018.9 |
| 20260905215428 | 80 | 7 | 5.0 | 11.0 | 0.00 | 0.00 | 0.00 | 81 | 1018.9 |
| 20260905214924 | 80 | 6 | 11.0 | 13.0 | 0.00 | 0.00 | 0.00 | 80 | 1018.9 |
| 20260905214419 | 80 | 7 | 4.0 | 11.0 | 0.00 | 0.00 | 0.00 | 81 | 1018.7 |
| 20260905213914 | 80 | 322 | 5.0 | 11.0 | 0.00 | 0.00 | 0.00 | 80 | 1018.9 |
| 20260905213410 | 81 | 332 | 4.0 | 8.0 | 0.00 | 0.00 | 0.00 | 79 | 1018.8 |
| 20260905212905 | 81 | 4 | 6.0 | 7.0 | 0.00 | 0.00 | 0.00 | 81 | 1018.8 |
| 20260905212400 | 81 | 305 | 4.0 | 8.0 | 0.00 | 0.00 | 0.00 | 80 | 1018.8 |
| 20260905211854 | 80 | 348 | 4.0 | 10.0 | 0.00 | 0.00 | 0.00 | 80 | 1018.8 |
| 20260905211349 | 81 | 325 | 7.0 | 9.0 | 0.00 | 0.00 | 0.00 | 80 | 1019.1 |
| 20260905210846 | 80 | 352 | 5.0 | 10.0 | 0.00 | 0.00 | 0.00 | 80 | 1019.0 |
| 20260905210345 | 80 | 352 | 5.0 | 9.0 | 0.00 | 0.00 | 0.00 | 81 | 1019.0 |
| 20260905205844 | 81 | 52 | 5.0 | 11.0 | 0.00 | 0.00 | 0.00 | 79 | 1019.0 |
| 20260905205339 | 81 | 312 | 6.0 | 8.0 | 0.00 | 0.00 | 0.00 | 78 | 1019.1 |
| 20260905204838 | 81 | 12 | 1.0 | 8.0 | 0.00 | 0.00 | 0.00 | 82 | 1019.0 |
| 20260905204335 | 80 | 355 | 3.0 | 9.0 | 0.00 | 0.00 | 0.00 | 84 | 1019.0 |
| 20260905203833 | 79 | 326 | 9.0 | 11.0 | 0.00 | 0.00 | 0.00 | 82 | 1019.1 |
| 20260905203330 | 81 | 316 | 4.0 | 9.0 | 0.00 | 0.00 | 0.00 | 80 | 1019.2 |
| 20260905202825 | 81 | 4 | 6.0 | 8.0 | 0.00 | 0.00 | 0.00 | 82 | 1019.1 |
| 20260905202319 | 80 | 342 | 2.0 | 8.0 | 0.00 | 0.00 | 0.00 | 83 | 1019.1 |
| 20260905201815 | 80 | 1 | 3.0 | 9.0 | 0.00 | 0.00 | 0.00 | 85 | 1019.2 |
| 20260905201311 | 79 | 1 | 7.0 | 10.0 | 0.00 | 0.00 | 0.00 | 86 | 1019.3 |
| 20260905200805 | 80 | 346 | 2.0 | 6.0 | 0.00 | 0.00 | 0.00 | 85 | 1019.2 |
| 20260905200301 | 79 | 349 | 5.0 | 7.0 | 0.00 | 0.00 | 0.00 | 84 | 1019.3 |
| 20260905195759 | 78 | 0 | 6.0 | 9.0 | 0.00 | 0.00 | 0.00 | 87 | 1019.5 |
| 20260905195254 | 78 | 335 | 4.0 | 6.0 | 0.00 | 0.00 | 0.00 | 89 | 1019.3 |
| 20260905194749 | 78 | 320 | 4.0 | 8.0 | 0.00 | 0.00 | 0.00 | 87 | 1019.6 |
| 20260905194249 | 78 | 335 | 5.0 | 10.0 | 0.00 | 0.00 | 0.00 | 87 | 1019.3 |
| 20260905193749 | 78 | 335 | 3.0 | 9.0 | 0.00 | 0.00 | 0.00 | 87 | 1019.3 |
| 20260905193244 | 78 | 285 | 4.0 | 6.0 | 0.00 | 0.00 | 0.00 | 88 | 1019.2 |
| 20260905192739 | 77 | 6 | 4.0 | 7.0 | 0.00 | 0.00 | 0.00 | 89 | 1019.5 |
| 20260905192235 | 77 | 5 | 3.0 | 7.0 | 0.00 | 0.00 | 0.00 | 91 | 1019.5 |
| 20260905191734 | 76 | 359 | 6.0 | 7.0 | 0.00 | 0.00 | 0.00 | 91 | 1019.5 |
| 20260905191233 | 76 | 333 | 4.0 | 8.0 | 0.00 | 0.00 | 0.00 | 92 | 1019.7 |
| 20260905190732 | 76 | 7 | 5.0 | 9.0 | 0.00 | 0.00 | 0.00 | 91 | 1019.6 |
| 20260905190230 | 76 | 13 | 9.0 | 9.0 | 0.00 | 0.00 | 0.00 | 91 | 1019.6 |
| 20260905185724 | 76 | 355 | 11.0 | 12.0 | 0.00 | 0.00 | 0.00 | 91 | 1019.6 |
| 20260905185219 | 76 | 351 | 9.0 | 11.0 | 0.00 | 0.00 | 0.00 | 92 | 1019.8 |
| 20260905184718 | 76 | 348 | 5.0 | 9.0 | 0.00 | 0.00 | 0.00 | 91 | 1019.9 |
| 20260905184217 | 75 | 11 | 5.0 | 9.0 | 0.00 | 0.00 | 0.00 | 92 | 1019.9 |
| 20260905183712 | 75 | 332 | 4.0 | 9.0 | 0.00 | 0.00 | 0.00 | 93 | 1019.9 |
| 20260905183208 | 75 | 0 | 4.0 | 11.0 | 0.00 | 0.00 | 0.00 | 93 | 1019.9 |
| 20260905182707 | 75 | 358 | 5.0 | 11.0 | 0.00 | 0.00 | 0.00 | 93 | 1019.9 |
| 20260905182207 | 76 | 344 | 3.0 | 8.0 | 0.00 | 0.00 | 0.00 | 93 | 1019.8 |
| 20260905181702 | 76 | 350 | 2.0 | 7.0 | 0.00 | 0.00 | 0.00 | 93 | 1020.0 |
| 20260905181201 | 75 | 6 | 5.0 | 8.0 | 0.00 | 0.00 | 0.00 | 93 | 1019.8 |
| 20260905180655 | 76 | 3 | 3.0 | 11.0 | 0.00 | 0.00 | 0.00 | 93 | 1020.0 |
| 20260905180151 | 76 | 347 | 6.0 | 10.0 | 0.00 | 0.00 | 0.00 | 92 | 1020.0 |
| 20260905175650 | 76 | 315 | 7.0 | 7.0 | 0.00 | 0.00 | 0.00 | 93 | 1019.9 |
| 20260905175145 | 76 | 340 | 5.0 | 9.0 | 0.00 | 0.00 | 0.00 | 94 | 1019.7 |
| 20260905174641 | 75 | 0 | 9.0 | 12.0 | 0.00 | 0.00 | 0.00 | 93 | 1019.8 |
| 20260905174137 | 75 | 354 | 7.0 | 11.0 | 0.00 | 0.00 | 0.00 | 93 | 1019.8 |
| 20260905173632 | 75 | 331 | 4.0 | 11.0 | 0.00 | 0.00 | 0.00 | 93 | 1019.7 |
| 20260905173128 | 75 | 259 | 2.0 | 9.0 | 0.00 | 0.00 | 0.00 | 94 | 1019.9 |
| 20260905172627 | 75 | 345 | 3.0 | 7.0 | 0.00 | 0.00 | 0.00 | 94 | 1019.9 |
| 20260905172122 | 75 | 346 | 8.0 | 9.0 | 0.00 | 0.00 | 0.00 | 94 | 1020.0 |
| 20260905171618 | 75 | 342 | 10.0 | 12.0 | 0.00 | 0.00 | 0.00 | 94 | 1019.9 |
| 20260905171114 | 75 | 303 | 5.0 | 8.0 | 0.00 | 0.00 | 0.00 | 94 | 1020.0 |
| 20260905170610 | 75 | 13 | 5.0 | 11.0 | 0.00 | 0.00 | 0.00 | 94 | 1020.0 |
| 20260905170105 | 75 | 356 | 6.0 | 11.0 | 0.00 | 0.00 | 0.00 | 93 | 1020.0 |
| 20260905165600 | 75 | 4 | 3.0 | 9.0 | 0.00 | 0.00 | 0.00 | 94 | 1020.0 |
| 20260905165055 | 75 | 3 | 5.0 | 10.0 | 0.00 | 0.00 | 0.00 | 94 | 1019.9 |
| 20260905164549 | 76 | 17 | 3.0 | 9.0 | 0.00 | 0.00 | 0.00 | 93 | 1019.9 |
| 20260905164044 | 76 | 0 | 7.0 | 11.0 | 0.00 | 0.00 | 0.00 | 93 | 1019.8 |
| 20260905163541 | 76 | 4 | 4.0 | 12.0 | 0.00 | 0.00 | 0.00 | 93 | 1019.9 |
| 20260905163036 | 76 | 16 | 3.0 | 11.0 | 0.00 | 0.00 | 0.00 | 94 | 1019.9 |
| 20260905162533 | 76 | 7 | 8.0 | 12.0 | 0.00 | 0.00 | 0.00 | 93 | 1020.0 |
| 20260905162026 | 76 | 4 | 5.0 | 11.0 | 0.00 | 0.00 | 0.00 | 93 | 1019.8 |
| 20260905161521 | 76 | 17 | 4.0 | 10.0 | 0.00 | 0.00 | 0.00 | 94 | 1020.0 |
| 20260905161018 | 76 | 5 | 4.0 | 10.0 | 0.00 | 0.00 | 0.00 | 93 | 1019.9 |
| 20260905160512 | 75 | 0 | 5.0 | 10.0 | 0.00 | 0.00 | 0.00 | 94 | 1019.9 |
| 20260905160011 | 75 | 357 | 6.0 | 9.0 | 0.00 | 0.00 | 0.00 | 95 | 1019.8 |
| 20260905155506 | 76 | 358 | 5.0 | 8.0 | 0.00 | 0.00 | 0.00 | 95 | 1019.7 |
| 20260905155004 | 75 | 356 | 6.0 | 12.0 | 0.00 | 0.00 | 0.00 | 94 | 1019.7 |
| 20260905154500 | 75 | 12 | 4.0 | 9.0 | 0.00 | 0.00 | 0.00 | 94 | 1019.8 |
| 20260905153955 | 76 | 3 | 9.0 | 10.0 | 0.00 | 0.00 | 0.00 | 94 | 1019.8 |
| 20260905153451 | 76 | 28 | 1.0 | 5.0 | 0.00 | 0.00 | 0.00 | 96 | 1019.8 |
| 20260905152950 | 75 | 0 | 4.0 | 9.0 | 0.00 | 0.00 | 0.00 | 96 | 1019.8 |
| 20260905152445 | 75 | 345 | 4.0 | 6.0 | 0.00 | 0.00 | 0.00 | 96 | 1019.6 |
| 20260905151939 | 74 | 0 | 5.0 | 10.0 | 0.00 | 0.00 | 0.00 | 96 | 1019.7 |
| 20260905151435 | 74 | 358 | 5.0 | 11.0 | 0.00 | 0.00 | 0.00 | 96 | 1019.7 |
| 20260905150931 | 75 | 1 | 4.0 | 9.0 | 0.00 | 0.00 | 0.00 | 96 | 1019.3 |
| 20260905150430 | 74 | 3 | 6.0 | 7.0 | 0.00 | 0.00 | 0.00 | 96 | 1019.3 |
| 20260905145926 | 74 | 6 | 7.0 | 12.0 | 0.00 | 0.00 | 0.00 | 96 | 1019.5 |
| 20260905145421 | 74 | 7 | 7.0 | 9.0 | 0.00 | 0.00 | 0.00 | 97 | 1019.3 |
| 20260905144921 | 74 | 1 | 3.0 | 6.0 | 0.00 | 0.00 | 0.00 | 98 | 1019.2 |
| 20260905144417 | 73 | 0 | 4.0 | 8.0 | 0.00 | 0.00 | 0.00 | 98 | 1019.1 |
| 20260905143915 | 73 | 324 | 5.0 | 9.0 | 0.00 | 0.00 | 0.00 | 98 | 1019.0 |
| 20260905143409 | 73 | 0 | 5.0 | 8.0 | 0.00 | 0.00 | 0.00 | 99 | 1019.0 |
| 20260905142903 | 73 | 8 | 2.0 | 4.0 | 0.00 | 0.00 | 0.00 | 99 | 1018.8 |
| 20260905142402 | 73 | 28 | 0.0 | 4.0 | 0.00 | 0.00 | 0.00 | 99 | 1018.8 |
| 20260905141858 | 72 | 18 | 2.0 | 6.0 | 0.00 | 0.00 | 0.00 | 99 | 1018.9 |
| 20260905141353 | 72 | 353 | 4.0 | 8.0 | 0.00 | 0.00 | 0.00 | 99 | 1018.8 |
| 20260905140850 | 72 | 47 | 2.0 | 5.0 | 0.00 | 0.00 | 0.00 | 99 | 1018.8 |
| 20260905140349 | 72 | 30 | 2.0 | 6.0 | 0.00 | 0.00 | 0.00 | 99 | 1018.9 |
| 20260905135847 | 72 | 40 | 0.0 | 6.0 | 0.00 | 0.00 | 0.00 | 99 | 1018.9 |
| 20260905135344 | 71 | 30 | 2.0 | 5.0 | 0.00 | 0.00 | 0.00 | 99 | 1018.7 |
| 20260905134839 | 71 | 15 | 5.0 | 7.0 | 0.00 | 0.00 | 0.00 | 99 | 1018.8 |
| 20260905134338 | 71 | 8 | 3.0 | 5.0 | 0.00 | 0.00 | 0.00 | 99 | 1018.8 |
| 20260905133833 | 71 | 31 | 4.0 | 10.0 | 0.00 | 0.00 | 0.00 | 99 | 1018.7 |
| 20260905133328 | 71 | 49 | 2.0 | 6.0 | 0.00 | 0.00 | 0.00 | 99 | 1018.8 |
| 20260905132827 | 71 | 5 | 3.0 | 5.0 | 0.00 | 0.00 | 0.00 | 99 | 1018.7 |
| 20260905132323 | 71 | 54 | 2.0 | 7.0 | 0.00 | 0.00 | 0.00 | 99 | 1018.6 |
| 20260905131817 | 71 | 9 | 2.0 | 4.0 | 0.00 | 0.00 | 0.00 | 99 | 1018.4 |
| 20260905131313 | 70 | 48 | 2.0 | 11.0 | 0.00 | 0.00 | 0.00 | 99 | 1018.6 |
| 20260905130808 | 70 | 171 | 0.0 | 7.0 | 0.00 | 0.00 | 0.00 | 99 | 1018.5 |
| 20260905130306 | 71 | 26 | 2.0 | 11.0 | 0.00 | 0.00 | 0.00 | 99 | 1018.7 |
| 20260905125802 | 71 | 5 | 5.0 | 9.0 | 0.00 | 0.00 | 0.00 | 99 | 1018.6 |
| 20260905125256 | 71 | 12 | 2.0 | 5.0 | 0.00 | 0.00 | 0.00 | 99 | 1018.8 |
| 20260905124753 | 70 | 30 | 2.0 | 6.0 | 0.00 | 0.00 | 0.00 | 99 | 1018.6 |